TimeEDT,TemperatureF,Dew PointF,Humidity,Sea Level PressureIn,VisibilityMPH,Wind Direction,Wind SpeedMPH,Gust SpeedMPH,PrecipitationIn,Events,Conditions,WindDirDegrees,DateUTC
12:15 AM,41.0,37.4,87,30.03,10.0,Calm,Calm,-,N/A,,Overcast,0,2013-09-23 04:15:00
12:35 AM,41.0,37.4,87,30.03,10.0,Calm,Calm,-,N/A,,Overcast,0,2013-09-23 04:35:00
12:55 AM,41.0,37.4,87,30.03,10.0,Calm,Calm,-,N/A,,Overcast,0,2013-09-23 04:55:00
1:15 AM,41.0,37.4,87,30.03,10.0,NNW,3.5,-,N/A,,Overcast,340,2013-09-23 05:15:00
1:35 AM,41.0,37.4,87,30.03,10.0,North,4.6,-,N/A,,Overcast,360,2013-09-23 05:35:00
1:55 AM,41.0,37.4,87,30.04,10.0,Calm,Calm,-,N/A,,Overcast,0,2013-09-23 05:55:00
2:15 AM,41.0,37.4,87,30.04,10.0,Calm,Calm,-,N/A,,Overcast,0,2013-09-23 06:15:00
2:35 AM,41.0,37.4,87,30.04,10.0,Calm,Calm,-,N/A,,Overcast,0,2013-09-23 06:35:00
2:55 AM,41.0,37.4,87,30.04,10.0,Calm,Calm,-,N/A,,Overcast,0,2013-09-23 06:55:00
3:15 AM,41.0,37.4,87,30.04,10.0,Calm,Calm,-,N/A,,Overcast,0,2013-09-23 07:15:00
3:35 AM,41.0,37.4,87,30.04,10.0,Calm,Calm,-,N/A,,Overcast,0,2013-09-23 07:35:00
3:55 AM,41.0,37.4,87,30.04,10.0,Calm,Calm,-,N/A,,Overcast,0,2013-09-23 07:55:00
4:15 AM,41.0,37.4,87,30.05,10.0,Calm,Calm,-,N/A,,Overcast,0,2013-09-23 08:15:00
4:35 AM,41.0,39.2,93,30.04,10.0,Calm,Calm,-,N/A,,Overcast,0,2013-09-23 08:35:00
4:55 AM,41.0,39.2,93,30.05,10.0,Calm,Calm,-,N/A,,Overcast,0,2013-09-23 08:55:00
5:15 AM,41.0,39.2,93,30.05,10.0,Calm,Calm,-,N/A,,Overcast,0,2013-09-23 09:15:00
5:35 AM,41.0,39.2,93,30.05,10.0,Calm,Calm,-,N/A,,Overcast,0,2013-09-23 09:35:00
5:55 AM,41.0,39.2,93,30.06,10.0,North,3.5,-,N/A,,Overcast,350,2013-09-23 09:55:00
6:15 AM,41.0,39.2,93,30.06,10.0,Calm,Calm,-,N/A,,Overcast,0,2013-09-23 10:15:00
6:35 AM,41.0,39.2,93,30.07,10.0,NNW,3.5,-,N/A,,Overcast,340,2013-09-23 10:35:00
6:55 AM,41.0,39.2,93,30.08,10.0,North,3.5,-,N/A,,Overcast,360,2013-09-23 10:55:00
7:15 AM,41.0,37.4,87,30.09,10.0,North,4.6,-,N/A,,Overcast,360,2013-09-23 11:15:00
7:35 AM,42.8,37.4,81,30.09,10.0,North,5.8,-,N/A,,Overcast,350,2013-09-23 11:35:00
7:55 AM,42.8,37.4,81,30.09,10.0,North,3.5,-,N/A,,Overcast,350,2013-09-23 11:55:00
8:15 AM,42.8,37.4,81,30.10,10.0,Calm,Calm,-,N/A,,Overcast,0,2013-09-23 12:15:00
8:35 AM,42.8,37.4,81,30.10,10.0,North,4.6,-,N/A,,Overcast,10,2013-09-23 12:35:00
8:55 AM,44.6,39.2,81,30.11,10.0,North,3.5,-,N/A,,Overcast,360,2013-09-23 12:55:00
9:15 AM,42.8,37.4,81,30.11,10.0,NNW,6.9,-,N/A,,Overcast,330,2013-09-23 13:15:00
9:35 AM,44.6,37.4,76,30.11,10.0,North,5.8,-,N/A,,Mostly Cloudy,350,2013-09-23 13:35:00
9:55 AM,46.4,37.4,71,30.11,10.0,NNW,6.9,-,N/A,,Mostly Cloudy,330,2013-09-23 13:55:00
10:15 AM,44.6,35.6,71,30.12,10.0,NNW,5.8,-,N/A,,Overcast,330,2013-09-23 14:15:00
10:35 AM,46.4,37.4,71,30.12,10.0,NNW,8.1,-,N/A,,Mostly Cloudy,340,2013-09-23 14:35:00
10:55 AM,44.6,37.4,76,30.13,10.0,NNW,4.6,-,N/A,,Overcast,340,2013-09-23 14:55:00
11:15 AM,46.4,35.6,66,30.13,10.0,NNW,5.8,-,N/A,,Overcast,340,2013-09-23 15:15:00
11:35 AM,48.2,37.4,66,30.13,10.0,North,6.9,-,N/A,,Mostly Cloudy,10,2013-09-23 15:35:00
11:55 AM,46.4,37.4,71,30.14,10.0,NW,5.8,-,N/A,,Mostly Cloudy,320,2013-09-23 15:55:00
12:15 PM,48.2,37.4,66,30.14,10.0,North,9.2,-,N/A,,Overcast,10,2013-09-23 16:15:00
12:35 PM,48.2,37.4,66,30.13,10.0,NW,8.1,-,N/A,,Overcast,310,2013-09-23 16:35:00
12:55 PM,50.0,37.4,62,30.13,10.0,NNW,5.8,-,N/A,,Mostly Cloudy,330,2013-09-23 16:55:00
1:15 PM,50.0,37.4,62,30.13,10.0,North,5.8,-,N/A,,Overcast,350,2013-09-23 17:15:00
1:35 PM,50.0,37.4,62,30.13,10.0,WNW,5.8,-,N/A,,Mostly Cloudy,290,2013-09-23 17:35:00
1:55 PM,50.0,37.4,62,30.13,10.0,WNW,4.6,-,N/A,,Overcast,290,2013-09-23 17:55:00
2:15 PM,50.0,37.4,62,30.12,10.0,NNW,5.8,-,N/A,,Mostly Cloudy,330,2013-09-23 18:15:00
2:35 PM,51.8,37.4,58,30.12,10.0,NW,4.6,-,N/A,,Mostly Cloudy,310,2013-09-23 18:35:00
2:55 PM,51.8,37.4,58,30.12,10.0,NNW,6.9,-,N/A,,Scattered Clouds,340,2013-09-23 18:55:00
3:15 PM,51.8,39.2,62,30.11,10.0,WNW,4.6,-,N/A,,Scattered Clouds,300,2013-09-23 19:15:00
3:35 PM,53.6,39.2,58,30.11,10.0,NW,5.8,-,N/A,,Scattered Clouds,310,2013-09-23 19:35:00
3:55 PM,53.6,39.2,58,30.11,10.0,WNW,3.5,-,N/A,,Scattered Clouds,290,2013-09-23 19:55:00
4:15 PM,53.6,39.2,58,30.10,10.0,NNW,3.5,-,N/A,,Clear,330,2013-09-23 20:15:00
4:35 PM,53.6,39.2,58,30.10,10.0,Calm,Calm,-,N/A,,Clear,0,2013-09-23 20:35:00
4:55 PM,53.6,39.2,58,30.11,10.0,WNW,5.8,-,N/A,,Clear,300,2013-09-23 20:55:00
5:15 PM,53.6,39.2,58,30.11,10.0,Calm,Calm,-,N/A,,Clear,0,2013-09-23 21:15:00
5:35 PM,53.6,39.2,58,30.11,10.0,NW,5.8,-,N/A,,Clear,320,2013-09-23 21:35:00
5:55 PM,51.8,39.2,62,30.11,10.0,NNW,3.5,-,N/A,,Clear,340,2013-09-23 21:55:00
6:15 PM,51.8,39.2,62,30.11,10.0,NNW,5.8,-,N/A,,Clear,330,2013-09-23 22:15:00
6:35 PM,50.0,39.2,66,30.12,10.0,NNW,4.6,-,N/A,,Clear,330,2013-09-23 22:35:00
6:55 PM,50.0,39.2,66,30.12,10.0,NW,3.5,-,N/A,,Clear,320,2013-09-23 22:55:00
7:15 PM,46.4,39.2,76,30.12,10.0,NW,3.5,-,N/A,,Clear,310,2013-09-23 23:15:00
7:35 PM,46.4,39.2,76,30.12,10.0,Calm,Calm,-,N/A,,Clear,0,2013-09-23 23:35:00
7:55 PM,44.6,39.2,81,30.12,10.0,Calm,Calm,-,N/A,,Clear,0,2013-09-23 23:55:00
8:15 PM,44.6,39.2,81,30.12,10.0,North,4.6,-,N/A,,Clear,350,2013-09-24 00:15:00
8:35 PM,44.6,37.4,76,30.12,10.0,North,4.6,-,N/A,,Clear,350,2013-09-24 00:35:00
8:55 PM,44.6,37.4,76,30.12,10.0,North,3.5,-,N/A,,Clear,350,2013-09-24 00:55:00
9:15 PM,44.6,37.4,76,30.12,10.0,Calm,Calm,-,N/A,,Clear,0,2013-09-24 01:15:00
9:35 PM,42.8,37.4,81,30.12,10.0,Calm,Calm,-,N/A,,Clear,0,2013-09-24 01:35:00
9:55 PM,42.8,37.4,81,30.12,10.0,Calm,Calm,-,N/A,,Clear,0,2013-09-24 01:55:00
10:15 PM,41.0,37.4,87,30.12,10.0,NNW,3.5,-,N/A,,Clear,340,2013-09-24 02:15:00
10:35 PM,42.8,37.4,81,30.13,10.0,Calm,Calm,-,N/A,,Clear,0,2013-09-24 02:35:00
10:55 PM,41.0,37.4,87,30.13,10.0,Calm,Calm,-,N/A,,Clear,0,2013-09-24 02:55:00
11:15 PM,41.0,37.4,87,30.12,10.0,Calm,Calm,-,N/A,,Clear,0,2013-09-24 03:15:00
11:35 PM,42.8,37.4,81,30.13,10.0,Calm,Calm,-,N/A,,Clear,0,2013-09-24 03:35:00
11:55 PM,41.0,37.4,87,30.13,10.0,Calm,Calm,-,N/A,,Clear,0,2013-09-24 03:55:00